Flag for Australia Weather past 2 weeks in Adelaide, South Australia, Australia

Now
46 °F

Partly sunny.


Feels Like: 45 °F
Forecast: 44 / 59 °F
Wind: 3 mph from North

Location: Adelaide Airport

Current Time: Sep 3, 2014 at 8:36:52 AM

Latest Report: Sep 3, 2014 at 7:30 AM


Visibility: N/A

Pressure: 30.27 "Hg

Humidity: 87%

Dew point: 43 °F

Location of AdelaideLocation

Historic Weather in Adelaide — Graph

°F

Adelaide temperature yesterday

Maximum temperature yesterday: 59 °F (at 2:00 PM)
Minimum temperature yesterday: 45 °F (at 6:00 AM)
Average temperature yesterday: 53 °F

Past Weeks' High & Low Weather Summary

 TemperatureHumidityPressure
High73 °F (Aug 30, 11:30 AM)100% (Aug 24, 3:30 AM)30.48 "Hg (Aug 24, 3:30 AM)
Low37 °F (Aug 21, 6:30 AM)23% (Aug 30, 4:30 PM)29.80 "Hg (Aug 31, 3:30 PM)
Average54 °F68%30.24 "Hg
* Reported Aug 19 6:30 AM — Sep 3 7:00 AM, Adelaide, Weather by CustomWeather, © 2014

Note: Actual official high and low records may vary slightly from our data, if they occured in-between our weather recording intervals... More about our weather records

Advertising

Adelaide weather history for previous 24 hours

 ConditionsComfort  
Time TempWeatherWind HumidityBarometerVisibility
7:00 AM
Sep 3
45 °FPartly sunny.6 mph93%30.27 "HgN/A
6:30 AM43 °FSunny.5 mph93%30.24 "Hg10 mi
6:00 AM43 °FClear.3 mph93%30.24 "Hg10 mi
5:30 AM43 °FPassing clouds.6 mph93%30.24 "HgN/A
5:00 AM41 °FPassing clouds.7 mph100%30.24 "HgN/A
4:30 AM41 °FPassing clouds.7 mph93%30.24 "HgN/A
4:00 AM41 °FPassing clouds.7 mph100%30.24 "HgN/A
3:30 AM41 °FPassing clouds.1 mph93%30.24 "HgN/A
3:00 AM41 °FPassing clouds.No wind100%30.27 "HgN/A
2:30 AM41 °FPassing clouds.6 mph93%30.27 "HgN/A
2:00 AM41 °FPassing clouds.No wind100%30.30 "HgN/A
1:30 AM43 °FPassing clouds.5 mph93%30.30 "HgN/A
1:00 AM45 °FPassing clouds.No wind87%30.30 "HgN/A
12:30 AM46 °FPassing clouds.3 mph87%30.30 "HgN/A
12:00 AM46 °FPassing clouds.7 mph87%30.30 "HgN/A
11:30 PM
Sep 2
46 °FPassing clouds.3 mph87%30.30 "HgN/A
10:30 PM48 °FPassing clouds.6 mph82%30.33 "HgN/A
10:00 PM48 °FPassing clouds.5 mph82%30.33 "HgN/A
9:30 PM48 °FPassing clouds.7 mph82%30.33 "HgN/A
9:00 PM48 °FPassing clouds.3 mph82%30.33 "HgN/A
8:30 PM50 °FPassing clouds.5 mph76%30.33 "HgN/A
8:00 PM50 °FPassing clouds.7 mph76%30.30 "HgN/A
7:30 PM52 °FPassing clouds.9 mph72%30.30 "HgN/A
7:00 PM52 °FPassing clouds.8 mph72%30.30 "HgN/A
6:30 PM54 °FClear.9 mph63%30.27 "Hg10 mi
6:00 PM55 °FPassing clouds.10 mph59%30.27 "HgN/A
5:30 PM55 °FPassing clouds.12 mph67%30.27 "HgN/A
5:00 PM57 °FPassing clouds.14 mph59%30.27 "HgN/A
4:30 PM59 °FPassing clouds.14 mph55%30.27 "HgN/A
4:00 PM59 °FPassing clouds.17 mph51%30.24 "HgN/A
3:30 PM59 °FScattered clouds.14 mph59%30.24 "HgN/A
3:00 PM57 °FScattered clouds.7 mph59%30.24 "HgN/A
2:30 PM59 °FSprinkles. Partly sunny.17 mph48%30.24 "HgN/A
2:00 PM59 °FPassing clouds.17 mph48%30.24 "HgN/A
1:30 PM57 °FScattered clouds.17 mph63%30.24 "HgN/A
1:00 PM57 °FScattered clouds.17 mph63%30.24 "HgN/A
12:30 PM57 °FSprinkles. Scattered clouds.16 mph67%30.27 "HgN/A
12:00 PM55 °FScattered clouds.12 mph67%30.27 "HgN/A
11:30 AM57 °FScattered showers. Scattered clouds.15 mph63%30.27 "HgN/A
11:00 AM55 °FScattered clouds.14 mph67%30.27 "HgN/A
10:30 AM57 °FScattered clouds.12 mph59%30.27 "HgN/A
10:00 AM55 °FScattered clouds.12 mph63%30.27 "HgN/A
9:30 AM55 °FScattered showers. Scattered clouds.12 mph63%30.27 "HgN/A
9:00 AM55 °FPassing clouds.10 mph67%30.27 "HgN/A
8:30 AM54 °FPassing clouds.8 mph67%30.27 "HgN/A
8:00 AM50 °FPassing clouds.8 mph76%30.24 "HgN/A
Weather by CustomWeather, © 2014

See weather overviewHow to use our weather pages